Location: 22
(39.7117°N, 89.5929°W)
Time: 18:39:16
(UTC-05:00)

Vanguard 3 - Pass Details

Date: 01 February 2023
Orbit: 508 x 3249 km, 33.4° (Epoch: 30 March)

Event Time Altitude Azimuth Distance (km) Brightness Sun altitude
Rises 01:24:15 0° 281° (W) 6,505 - -62.5°
Reaches altitude 10° 01:28:39 10° 274° (W) 5,754 - -62.0°
Maximum altitude 01:44:57 39° 215° (SW) 4,248 - -59.7°
Drops below altitude 10° 02:01:18 10° 155° (SSE) 5,721 - -57.3°
Exits shadow 02:01:18 10° 155° (SSE) 5,722 11.3 -57.3°
Sets 02:05:44 0° 147° (SSE) 6,460 11.7 -56.6°
